Alexandria, LA

2:26 AM CST on February 26, 2017 (GMT -0600)
Alexandria International

Weather History for KAEX - January, 2010

Change the Weather History Date:

Saturday, January 2, 2010

  Actual Average Record
Temperature  
Mean Temperature 40 °F 49 °F  
Max Temperature 51 °F 59 °F 81 °F (1952)
Min Temperature 29 °F 39 °F 15 °F (1928)
Degree Days  
Heating Degree Days 25 16  
Month to date heating degree days 47 32  
Since 1 July heating degree days 878 821  
Moisture  
Dew Point 31 °F    
Average Humidity 73    
Maximum Humidity 100    
Minimum Humidity 46    
Precipitation  
Precipitation 0.00 in 0.13 in 2.10 in (1951)
Month to date precipitation 0.10 0.26  
Year to date precipitation 0.10 0.26  
Snow  
Snow 0.00 in - 0.00 in ()
Month to date snowfall 0.0  
Since 1 July snowfall 0.2  
Snow Depth 0.00 in    
Sea Level Pressure  
Sea Level Pressure 30.37 in    
Wind  
Wind Speed 3 mph (ENE)    
Max Wind Speed 10 mph    
Max Gust Speed 13 mph    
Visibility 8 miles    
Events      
T = Trace of Precipitation, MM = Missing Value Source: NWS Daily Summary

Daily Weather History Graph

Daily Weather History Graph

Search for Another Location

Airport or City:

Trip Planner

Search our weather history database for the weather conditions in past years. The results will help you decide how hot, cold, wet, or windy it might be!

Date:

Astronomy

Jan. 02, 2010 Rise Set
Actual Time 7:09 AM CST 5:19 PM CST
Civil Twilight 6:42 AM CST 5:46 PM CST
Nautical Twilight 6:12 AM CST 6:16 PM CST
Astronomical Twilight 5:43 AM CST 6:45 PM CST
Moon 7:49 PM CST (1/2) 8:41 AM CST (1/2)
Length of Visible Light 11h 03m
Length of Day
10h 09m
Waning Gibbous, 94% of the Moon is Illuminated
Jan 2
Waning Gibbous
Jan 7
Last Quarter
Jan 15
New
Jan 23
First Quarter
Jan 30
Full

Hourly Weather History & Observations

Time (CST) Temp. Windchill Dew Point Humidity Pressure Visibility Wind Dir Wind Speed Gust Speed Precip Events Conditions
12:53 AM 33.1 °F - 32.0 °F 96% 30.40 in 7.0 mi Calm Calm - N/A   Clear
1:53 AM 32.0 °F - 30.9 °F 96% 30.40 in 3.0 mi Calm Calm - N/A   Clear
2:27 AM 30.2 °F - 30.2 °F 100% 30.38 in 1.8 mi Calm Calm - N/A   Clear
2:37 AM 30.2 °F - 30.2 °F 100% 30.38 in 7.0 mi Calm Calm - N/A   Clear
2:53 AM 32.0 °F - 30.9 °F 96% 30.40 in 7.0 mi Calm Calm - N/A   Clear
3:53 AM 30.9 °F - 30.0 °F 96% 30.40 in 7.0 mi Calm Calm - N/A   Clear
4:53 AM 30.9 °F - 28.9 °F 92% 30.39 in 6.0 mi Calm Calm - N/A   Clear
5:53 AM 30.9 °F - 28.9 °F 92% 30.39 in 5.0 mi Calm Calm - N/A   Clear
6:19 AM 28.4 °F - 28.4 °F 100% 30.38 in 2.5 mi Calm Calm - N/A   Clear
6:26 AM 30.2 °F - 28.4 °F 93% 30.38 in 5.0 mi Calm Calm - N/A   Clear
6:53 AM 30.0 °F - 28.0 °F 92% 30.40 in 6.0 mi Calm Calm - N/A   Clear
7:53 AM 30.9 °F - 30.0 °F 96% 30.41 in 4.0 mi Calm Calm - N/A   Clear
8:53 AM 37.0 °F 34.5 °F 33.1 °F 86% 30.43 in 7.0 mi NE 3.5 mph - N/A   Clear
9:53 AM 41.0 °F 38.0 °F 33.1 °F 73% 30.43 in 9.0 mi East 4.6 mph - N/A   Clear
10:53 AM 44.1 °F 40.1 °F 32.0 °F 63% 30.43 in 10.0 mi East 6.9 mph - N/A   Clear
11:53 AM 46.0 °F - 30.9 °F 56% 30.40 in 10.0 mi Calm Calm - N/A   Clear
12:53 PM 48.9 °F - 32.0 °F 52% 30.36 in 10.0 mi Variable 3.5 mph - N/A   Clear
1:53 PM 48.9 °F - 30.9 °F 50% 30.34 in 10.0 mi Calm Calm - N/A   Clear
2:53 PM 50.0 °F - 30.9 °F 48% 30.32 in 10.0 mi East 3.5 mph - N/A   Clear
3:53 PM 50.0 °F - 32.0 °F 50% 30.32 in 10.0 mi Calm Calm - N/A   Clear
4:53 PM 48.0 °F - 32.0 °F 54% 30.31 in 10.0 mi ENE 4.6 mph - N/A   Clear
5:53 PM 44.1 °F 41.5 °F 30.9 °F 60% 30.32 in 10.0 mi ENE 4.6 mph - N/A   Clear
6:53 PM 43.0 °F 38.8 °F 30.9 °F 62% 30.32 in 10.0 mi ENE 6.9 mph - N/A   Clear
7:53 PM 39.9 °F 34.5 °F 30.9 °F 70% 30.32 in 10.0 mi NE 8.1 mph - N/A   Clear
8:53 PM 39.0 °F 34.0 °F 30.0 °F 70% 30.33 in 10.0 mi ENE 6.9 mph - N/A   Clear
9:53 PM 36.0 °F 32.1 °F 30.0 °F 79% 30.33 in 10.0 mi ENE 4.6 mph - N/A   Clear
11:53 PM 34.0 °F 29.8 °F 28.9 °F 82% 30.32 in 9.0 mi ENE 4.6 mph - N/A   Clear